Regional Weather Roundup
Issued by NWS

Home | Current Version | Previous Version | Graphics & Text | Print | Product List | Glossary On
Versions: 1 2 3 4 5 6 7 8 9 10 11 12 13 14 15 16 17 18 19 20 21 22 23 24 25 26 27 28 29 30 31 32 33 34 35 36 37 38 39 40 41 42 43 44 45 46 47 48 49 50
783
ASUS44 KMEG 240710
RWRTN
TENNESSEE HOURLY STATE WEATHER ROUNDUP
NATIONAL WEATHER SERVICE MEMPHIS TN
200 AM CDT TUE MAY 24 2016

TNZ002-004-019-021-049-052-054-088>092-240800-
WEST TENNESSEE

CITY           SKY/WX    TMP DP  RH WIND       PRES   REMARKS
MEMPHIS INTL   CLOUDY    69  54  58 SE5       29.98S
NWS MEMPHIS      N/A     64 N/A N/A MISG        N/A
JACKSON        PTCLDY    59  56  89 CALM      30.00S
DYERSBURG      MOCLDY    64  57  77 CALM      29.99F
UNION CITY     CLEAR     61  57  88 CALM      29.99S
PARIS          CLEAR     55  54  94 E3        30.01R
LEXINGTON      CLEAR     57  57 100 CALM      30.01R
$$

TNZ008-025-027-028-033-062-065-066-240800-
NORTH MIDDLE TENNESSEE

CITY           SKY/WX    TMP DP  RH WIND       PRES   REMARKS
NASHVILLE      CLEAR     59  52  77 CALM      30.02S
CLARKSVILLE    CLEAR     57  52  83 CALM      30.00S
SMYRNA         CLEAR     55  53  93 CALM      30.03S
COOKEVILLE     CLEAR     48  46  93 CALM      30.02F
CROSSVILLE     CLEAR     51  46  83 CALM      30.07F
$$

TNZ061-075-076-078-094-096-097-240800-
SOUTH MIDDLE TENNESSEE

CITY           SKY/WX    TMP DP  RH WIND       PRES   REMARKS
FAYETTEVILLE   PTCLDY    59  52  77 CALM      30.02S
TULLAHOMA      CLEAR     52  52 100 CALM      30.04S
WINCHESTER     CLEAR     55  50  82 CALM      30.04R
MCMINNVILLE    CLEAR     52  52 100 CALM      30.03F
COLUMBIA       CLEAR    N/A N/A N/A CALM      30.01R
SHELBYVILLE    CLEAR     54  52  94 S3        30.03S
$$

TNZ017-018-042-046-047-240800-
NORTHEAST TENNESSEE

CITY           SKY/WX    TMP DP  RH WIND       PRES   REMARKS
TRI CITIES     CLEAR     50  48  93 NE3       30.09R
$$

TNZ012-013-036-069-073-074-240800-
CENTRAL EAST TENNESSEE

CITY           SKY/WX    TMP DP  RH WIND       PRES   REMARKS
KNOXVILLE      CLEAR     58  50  75 CALM      30.04S
OAK RIDGE      CLEAR     55  50  83 CALM      30.07R
GATLINBURG     CLEAR     52  48  87 CALM      30.06R
$$

TNZ083-085-099-240800-
SOUTHEAST TENNESSEE

CITY           SKY/WX    TMP DP  RH WIND       PRES   REMARKS
CHATTANOOGA    CLEAR     58  53  84 CALM      30.03S
$$

SKY/WX REPORTED AS FAIR MEANS FEW OR NO CLOUDS BELOW
12 THOUSAND FEET.





USA.gov is the U.S. government's official web portal to all federal, state and local government web resources and services.